DateTimeUTC,F1_A11,F1_S11,BsB_S11,BsG_S11,BsR_S11,BbsB_S11,BbsG_S11,BbsR_S11,BaB_A11,BaG_A11,BaR_A11,Tu_S11,T_S11,Uu_S11,U_S11,P_S11,T1_A11
2021-02-09T04:00:00Z,00000200,21000000,,,,,,,0000.05,-000.00,-000.13,16.1,23.5,,00.0,0654.3,31.0
2021-02-09T04:01:00Z,00000200,21000000,,,,,,,-000.39,-000.33,-000.00,16.1,23.5,,00.0,0654.3,31.0
2021-02-09T04:02:00Z,00000200,21000000,,,,,,,0000.33,0000.22,-000.12,16.0,23.5,,00.0,0654.3,31.0
2021-02-09T04:03:00Z,00000200,61000000,,,,,,,0014.13,0012.54,0009.53,16.0,23.5,,00.0,0654.3,31.0
2021-02-09T04:04:00Z,00000200,41000000,0002.14,0001.09,0000.51,0000.50,0000.29,0000.13,0016.30,0014.84,0011.38,16.1,23.2,,00.0,0655.2,31.0
2021-02-09T04:05:00Z,00000200,01000000,0002.28,0001.35,0000.85,0000.50,0000.20,0000.20,0021.90,0019.69,0014.88,16.1,23.2,,00.0,0655.2,30.9
2021-02-09T04:06:00Z,00000200,01000000,0000.85,0000.88,0000.37,-000.14,-000.07,0000.23,0006.96,0006.40,0004.84,16.2,23.1,,00.0,0655.2,30.9
2021-02-09T04:07:00Z,00000200,01000000,0001.33,0001.01,0000.55,0000.49,0000.23,0000.47,0001.21,0000.87,0000.84,16.2,23.1,,00.0,0655.2,31.0
2021-02-09T04:08:00Z,00000200,01000000,0000.82,0001.02,0000.15,-000.26,0000.06,0000.07,0000.88,0000.84,0000.51,16.3,23.2,,00.0,0655.2,31.0
2021-02-09T04:09:00Z,00000200,01000000,0000.98,0000.64,0000.37,0000.30,0000.01,0000.30,0000.27,0000.45,-000.00,16.4,23.2,,00.0,0655.2,31.0
2021-02-09T04:10:00Z,00000200,01000000,0001.01,0000.31,0000.41,0000.24,0000.21,0000.06,0000.68,0000.47,0000.41,16.5,23.3,,00.0,0655.2,31.0
2021-02-09T04:11:00Z,00000200,01000000,0001.08,0000.69,0000.29,0000.96,-000.02,-000.08,0000.50,0000.82,0000.45,16.5,23.3,,00.0,0655.2,31.0
2021-02-09T04:12:00Z,00000200,01000000,0001.51,0000.67,-000.03,0000.23,0000.20,0000.15,0000.34,0000.15,0000.32,16.5,23.3,,00.0,0655.2,31.0
2021-02-09T04:13:00Z,00000200,01000000,-000.03,0000.62,0000.00,0000.09,0000.03,-000.02,0000.37,0000.45,0000.21,16.5,23.3,,00.0,0655.2,31.0
2021-02-09T04:14:00Z,00000200,01000000,0001.05,0000.68,0000.40,-000.01,0000.17,0000.18,0000.08,0000.12,0000.03,16.5,23.3,,00.0,0655.2,31.0
2021-02-09T04:15:00Z,00000200,01000000,0000.55,0000.62,0000.28,0000.19,0000.21,0000.12,0000.62,0000.60,0000.25,16.4,23.2,,00.0,0655.2,31.0
2021-02-09T04:16:00Z,00000200,01000000,0000.85,0000.71,0000.07,0000.43,0000.18,-000.02,0000.77,0000.22,0000.34,16.4,23.2,,00.0,0655.3,31.0
2021-02-09T04:17:00Z,00000200,01000000,0000.30,0000.60,0000.46,0000.22,0000.28,0000.25,0001.25,0001.46,0001.28,16.3,23.2,,00.0,0655.3,31.0
2021-02-09T04:18:00Z,00000200,01000000,0001.49,0000.49,0000.58,0000.42,0000.46,0000.32,0004.29,0003.70,0002.59,16.3,23.2,,00.0,0655.2,31.0
2021-02-09T04:19:00Z,00000200,01000000,0000.94,0000.63,0000.55,-000.00,0000.16,0000.23,0004.09,0003.70,0002.84,16.2,23.1,,00.0,0655.2,30.9
2021-02-09T04:20:00Z,00000200,01000000,0001.13,0000.38,0000.36,0000.37,0000.21,0000.30,0002.54,0002.34,0001.61,16.2,23.1,,00.0,0655.2,30.9
2021-02-09T04:21:00Z,00000200,01000000,0001.62,0000.79,0000.45,-000.27,0000.14,0000.60,0002.07,0001.82,0001.49,16.2,23.1,,00.0,0655.2,30.9
2021-02-09T04:22:00Z,00000200,01000000,0000.88,0000.67,0000.46,0000.30,0000.21,0000.27,0003.54,0003.29,0002.36,16.3,23.1,,00.0,0655.2,31.0
2021-02-09T04:23:00Z,00000200,01000000,0001.42,0000.99,0000.28,0000.18,0000.13,0000.41,0012.68,0010.87,0008.38,16.4,23.2,,00.0,0655.2,31.0
2021-02-09T04:24:00Z,00000200,01000000,0001.46,0000.84,0000.56,0000.95,0000.17,-000.04,0013.70,0012.86,0009.70,16.5,23.2,,00.0,0655.2,31.0
2021-02-09T04:25:00Z,00000200,01000000,0001.85,0000.49,0000.49,0000.71,0000.09,0000.39,0008.86,0007.87,0006.18,16.5,23.3,,00.0,0655.2,31.0
2021-02-09T04:26:00Z,00000200,01000000,0001.69,0000.58,0000.30,0000.30,-000.17,0000.22,0006.18,0005.96,0004.51,16.5,23.3,,00.0,0655.1,31.0
2021-02-09T04:27:00Z,00000200,01000000,0001.05,0000.36,0000.20,0000.45,0000.18,0000.35,0004.99,0004.51,0003.43,16.5,23.2,,00.0,0655.1,31.0
2021-02-09T04:28:00Z,00000200,01000000,0000.78,0000.75,0000.45,-000.23,0000.37,0000.14,0007.52,0006.60,0005.02,16.5,23.2,,00.0,0655.1,31.0
2021-02-09T04:29:00Z,00000200,01000000,0001.05,0000.89,0000.21,0000.38,-000.02,0000.11,0008.08,0007.50,0005.26,16.4,23.2,,00.0,0655.1,31.0
2021-02-09T04:30:00Z,00000200,01000000,0001.64,0000.90,0000.34,0000.05,0000.22,0000.20,0007.91,0007.06,0005.73,16.4,23.2,,00.0,0655.1,31.0
2021-02-09T04:31:00Z,00000200,01000000,0000.49,0001.02,0000.43,-000.18,-000.15,0000.38,0007.57,0006.72,0004.95,16.3,23.2,,00.0,0655.1,31.0
2021-02-09T04:32:00Z,00000200,01000000,0001.36,0000.68,0000.16,0000.08,0000.33,0000.28,0004.89,0004.67,0003.34,16.3,23.1,,00.0,0655.1,31.0
2021-02-09T04:33:00Z,00000200,01000000,0000.25,0000.73,0000.24,0000.37,0000.22,0000.20,0006.43,0005.24,0004.21,16.2,23.1,,00.0,0655.0,30.9
2021-02-09T04:34:00Z,00000200,01000000,0000.80,0000.57,0000.38,0000.59,-000.00,0000.12,0008.15,0007.70,0005.84,16.2,23.1,,00.0,0655.0,30.9
2021-02-09T04:35:00Z,00000200,01000000,0000.40,0000.67,0000.21,-000.09,0000.05,0000.23,0008.20,0007.09,0005.53,16.2,23.1,,00.0,0655.0,30.9
2021-02-09T04:36:00Z,00000200,01000000,0000.91,0000.99,0000.32,0000.60,0000.33,0000.27,0007.76,0006.74,0005.14,16.2,23.1,,00.0,0654.9,30.9
2021-02-09T04:37:00Z,00000200,01000000,0001.17,0001.16,0000.49,0000.20,0000.24,0000.36,0011.04,0010.30,0007.84,16.3,23.1,,00.0,0654.9,30.9
2021-02-09T04:38:00Z,00000200,01000000,0001.19,0000.64,-000.03,-000.43,-000.12,-000.17,0004.97,0004.55,0003.41,16.4,23.1,,00.0,0654.9,31.0
2021-02-09T04:39:00Z,00000200,01000000,0000.72,0000.52,0000.28,-000.36,0000.05,0000.24,0001.65,0001.58,0001.56,16.4,23.2,,00.0,0654.9,31.0
2021-02-09T04:40:00Z,00000200,01000000,0000.36,0000.42,0000.19,-000.39,0000.20,0000.08,0000.85,0001.02,0000.42,16.5,23.2,,00.0,0654.9,31.0
2021-02-09T04:41:00Z,00000200,01000000,0000.48,0000.47,0000.14,0000.20,0000.12,0000.01,0000.65,0000.53,0000.46,16.5,23.2,,00.0,0654.9,31.0
2021-02-09T04:42:00Z,00000200,01000000,0000.44,0000.72,0000.16,-000.22,0000.08,0000.06,0000.29,0000.65,0000.54,16.5,23.2,,00.0,0654.9,31.0
2021-02-09T04:43:00Z,00000200,01000000,0001.50,0000.60,0000.30,-000.01,0000.11,0000.20,0000.72,0000.20,-000.11,16.5,23.2,,00.0,0654.9,31.0
2021-02-09T04:44:00Z,00000200,01000000,0001.08,0000.72,0000.31,0000.37,0000.27,0000.21,0003.37,0002.80,0002.27,16.4,23.2,,00.0,0655.0,31.0
2021-02-09T04:45:00Z,00000200,01000000,0001.62,0000.67,0000.23,0000.45,0000.38,0000.24,0006.36,0005.69,0004.39,16.4,23.2,,00.0,0655.0,31.0
2021-02-09T04:46:00Z,00000200,01000000,0001.35,0000.62,-000.01,0000.23,0000.35,0000.34,0000.61,0000.82,0000.68,16.4,23.2,,00.0,0655.0,31.0
2021-02-09T04:47:00Z,00000200,01000000,0000.95,0000.33,0000.30,-000.03,0000.28,0000.09,0000.41,0000.19,-000.18,16.3,23.1,,00.0,0655.0,30.9
2021-02-09T04:48:00Z,00000200,01000000,0000.74,0000.49,0000.22,-000.02,0000.32,0000.13,0000.46,0000.27,0000.06,16.3,23.1,,00.0,0655.1,30.9
2021-02-09T04:49:00Z,00000200,01000000,0000.66,0000.24,0000.10,0000.26,-000.06,0000.04,0000.29,0000.33,0000.63,16.2,23.1,,00.0,0655.0,30.9
2021-02-09T04:50:00Z,00000200,01000000,0000.72,0000.71,0000.25,0000.30,0000.02,0000.27,0000.78,0000.54,0000.31,16.2,23.1,,00.0,0655.0,30.9
2021-02-09T04:51:00Z,00000200,01000000,0000.65,0000.47,0000.51,-000.12,0000.22,0000.38,0000.51,0000.72,0000.38,16.2,23.1,,00.0,0654.9,30.9
2021-02-09T04:52:00Z,00000200,01000000,0000.89,0000.52,-000.00,0000.69,0000.38,0000.17,0000.91,0000.70,0000.59,16.3,23.1,,00.0,0654.9,30.9
2021-02-09T04:53:00Z,00000200,01000000,0000.17,0000.44,0000.22,0000.11,0000.09,0000.15,0000.92,0000.68,0000.60,16.3,23.1,,00.0,0654.8,31.0
2021-02-09T04:54:00Z,00000200,01000000,0000.09,0000.17,0000.08,-000.38,-000.06,0000.11,0000.29,0000.55,0000.45,16.4,23.2,,00.0,0654.8,31.0
2021-02-09T04:55:00Z,00000200,01000000,0000.39,0000.56,0000.19,0000.22,0000.02,0000.20,0000.50,0000.57,0000.64,16.5,23.2,,00.0,0654.8,31.0
2021-02-09T04:56:00Z,00000200,01000000,0000.05,0000.47,0000.18,0000.14,0000.24,0000.31,0000.61,0000.60,0000.15,16.6,23.3,,00.0,0654.7,31.0
2021-02-09T04:57:00Z,00000200,41000000,,,,,,,0000.16,-000.04,-000.03,16.6,23.3,,00.0,0654.6,31.0
2021-02-09T04:58:00Z,00000200,61000000,,,,,,,-000.00,0000.25,0000.26,16.3,23.4,,00.0,0653.7,31.0
2021-02-09T04:59:00Z,00000200,21000000,,,,,,,0000.25,0000.01,0000.06,16.2,23.5,,00.0,0653.7,31.0
